Location: Hobi?a Gr?di?te
(45.4833°N, 22.7833°E)
Time: 13:34:43
(UTC+00:00)

Cosmos 1844 Rocket - Visible Passes

Search period start: 25 September 2023 00:00
Search period end: 05 October 2023 00:00
Orbit: 825 x 843 km, 71.0° (Epoch: 24 September)

Date Brightness Start Highest point End Pass type
(mag) Time Alt. Az. Time Alt. Az. Time Alt. Az.
25 Sep 5.3 18:25:31 10° WNW 18:28:54 17° W 18:32:17 10° SW visible
26 Sep 5.3 18:07:57 10° WNW 18:11:38 18° W 18:15:19 10° SW visible
27 Sep 5.2 17:50:24 10° NW 17:54:22 20° W 17:58:18 10° SW visible
28 Sep 5.2 17:32:54 10° NW 17:37:04 22° W 17:41:15 10° SSW visible
29 Sep 5.1 17:15:24 10° NW 17:19:47 24° WSW 17:24:10 10° SSW visible
30 Sep 5.0 16:57:56 10° NW 17:02:30 27° WSW 17:07:04 10° SSW visible
01 Oct 4.9 16:40:29 10° NW 16:45:13 29° WSW 16:49:56 10° SSW visible
